Location: Tel Aviv
(32.0670°N, 34.7670°E)
Time: 19:11:05
(UTC+03:00)

Vanguard 2 Rocket - Pass Details

Date: 23 January 2022
Orbit: 553 x 3323 km, 32.9° (Epoch: 24 May)

Event Time Altitude Azimuth Distance (km) Brightness Sun altitude
Exits shadow 01:03:05 33° 87° (E) 4,493 10.3 -69.8°
Drops below altitude 10° 01:12:16 10° 76° (ENE) 6,284 11.3 -68.2°
Sets 01:17:18 0° 73° (ENE) 7,287 11.8 -67.2°
